WA5GP Weather Reports


Display with metric or nautical units.
time (UTC)temp
F
wind
direction
speed
MPH
gust
MPH
rain 1hr
in
rain 24hr
in
rain mn
in
humidity
%
barometer
mb
20260906220028 99 123 9.0 13.0 0.00 0.00 0.00 37 1002.6
20260906214519 99 101 9.0 19.0 0.00 0.00 0.00 36 1002.7
20260906213017 99 139 5.0 15.0 0.00 0.00 0.00 36 1002.8
20260906211513 100 106 11.0 17.0 0.00 0.00 0.00 36 1003.1
20260906210113 99 108 7.0 18.0 0.00 0.00 0.00 39 1003.2
20260906204603 99 100 3.0 14.0 0.00 0.00 0.00 39 1003.3
20260906203101 98 89 6.0 18.0 0.00 0.00 0.00 38 1003.4
20260906201634 97 90 0.0 14.0 0.00 0.00 0.00 40 1003.5
20260906200036 97 120 5.0 10.0 0.00 0.00 0.00 40 1003.8
20260906194543 99 43 5.0 15.0 0.00 0.00 0.00 39 1003.8
20260906193041 100 169 6.0 11.0 0.00 0.00 0.00 38 1004.0
20260906191540 97 110 4.0 8.0 0.00 0.00 0.00 42 1004.2
20260906190018 98 106 6.0 11.0 0.00 0.00 0.00 41 1004.4
20260906184516 97 133 4.0 12.0 0.00 0.00 0.00 43 1004.5
20260906183025 98 166 5.0 12.0 0.00 0.00 0.00 41 1004.5
20260906181546 98 149 8.0 14.0 0.00 0.00 0.00 41 1004.9
20260906180003 98 145 4.0 11.0 0.00 0.00 0.00 42 1005.1
20260906174612 97 70 1.0 14.0 0.00 0.00 0.00 43 1005.3
20260906173007 95 175 3.0 14.0 0.00 0.00 0.00 45 1005.8
20260906171509 96 130 2.0 10.0 0.00 0.00 0.00 46 1006.0
20260906170053 95 96 11.0 16.0 0.00 0.00 0.00 45 1006.2
20260906164557 96 49 2.0 9.0 0.00 0.00 0.00 42 1006.2
20260906163101 94 73 5.0 14.0 0.00 0.00 0.00 48 1006.3
20260906161601 94 98 2.0 10.0 0.00 0.00 0.00 49 1006.2
20260906160036 94 129 3.0 6.0 0.00 0.00 0.00 48 1006.1
20260906154530 93 84 1.0 6.0 0.00 0.00 0.00 53 1006.2
20260906153028 91 141 1.0 3.0 0.00 0.00 0.00 55 1006.3
20260906151526 91 333 0.0 2.0 0.00 0.00 0.00 56 1006.2
20260906150013 89 226 2.0 4.0 0.00 0.00 0.00 59 1006.2
20260906144518 88 258 1.0 4.0 0.00 0.00 0.00 60 1006.2
20260906143015 87 160 0.0 2.0 0.00 0.00 0.00 62 1006.2
20260906141513 87 148 0.0 2.0 0.00 0.00 0.00 63 1006.2
20260906140108 84 95 0.0 4.0 0.00 0.00 0.00 67 1006.1
20260906134502 82 134 0.0 2.0 0.00 0.00 0.00 71 1006.1
20260906133004 80 67 0.0 1.0 0.00 0.00 0.00 74 1006.1
20260906131509 77 6 0.0 2.0 0.00 0.00 0.00 79 1006.1
20260906130108 75 4 1.0 2.0 0.00 0.00 0.00 81 1006.0
20260906124554 73 10 0.0 0.0 0.00 0.00 0.00 83 1005.8
20260906123052 72 11 0.0 0.0 0.00 0.00 0.00 84 1005.7
20260906121606 72 10 0.0 0.0 0.00 0.00 0.00 85 1005.6
20260906120030 72 10 0.0 0.0 0.00 0.00 0.00 84 1005.3
20260906114542 72 11 0.0 0.0 0.00 0.00 0.00 84 1005.1
20260906113046 72 10 0.0 0.0 0.00 0.00 0.00 84 1005.0
20260906111540 73 10 0.0 0.0 0.00 0.00 0.00 83 1005.0
20260906110025 73 10 0.0 0.0 0.00 0.00 0.00 82 1005.0
20260906104529 73 10 1.0 2.0 0.00 0.00 0.00 83 1004.9
20260906103030 73 343 0.0 1.0 0.00 0.00 0.00 82 1004.8
20260906101541 73 343 0.0 0.0 0.00 0.00 0.00 81 1004.8
20260906100030 73 343 0.0 2.0 0.00 0.00 0.00 81 1004.8
20260906094521 74 6 0.0 0.0 0.00 0.00 0.00 80 1004.9
20260906093022 75 6 0.0 0.0 0.00 0.00 0.00 79 1004.7
20260906091524 75 6 0.0 0.0 0.00 0.00 0.00 78 1004.5
20260906090112 76 6 0.0 0.0 0.00 0.00 0.00 77 1004.5
20260906084502 76 6 1.0 2.0 0.00 0.00 0.00 77 1004.4
20260906083010 76 358 0.0 1.0 0.00 0.00 0.00 76 1004.2
20260906081505 77 359 0.0 0.0 0.00 0.00 0.00 75 1004.1
20260906080103 78 357 0.0 1.0 0.00 0.00 0.00 74 1004.1
20260906074554 78 153 0.0 1.0 0.00 0.00 0.00 73 1004.1
20260906073057 79 162 0.0 0.0 0.00 0.00 0.00 72 1004.1
20260906071549 80 160 0.0 0.0 0.00 0.00 0.00 69 1004.4
20260906070045 82 160 0.0 1.0 0.00 0.00 0.00 67 1004.5
20260906064542 83 125 0.0 2.0 0.00 0.00 0.00 66 1004.5
20260906063044 83 143 0.0 5.0 0.00 0.00 0.00 65 1004.6
20260906061543 84 161 1.0 5.0 0.00 0.00 0.00 64 1004.6
20260906060024 84 228 2.0 6.0 0.00 0.00 0.00 63 1004.6
20260906054524 84 127 3.0 6.0 0.00 0.00 0.00 62 1004.8
20260906053018 85 134 2.0 6.0 0.00 0.00 0.00 61 1004.8
20260906051517 85 139 3.0 6.0 0.00 0.00 0.00 60 1005.0
20260906050114 85 134 2.0 6.0 0.00 0.00 0.00 59 1005.0
20260906044501 86 191 1.0 6.0 0.00 0.00 0.00 57 1004.8
20260906043008 86 133 4.0 7.0 0.00 0.00 0.00 56 1004.8
20260906041520 86 133 3.0 7.0 0.00 0.00 0.00 54 1004.7
20260906040001 87 124 6.0 12.0 0.00 0.00 0.00 53 1004.6
20260906034503 83 101 0.0 2.0 0.00 0.00 0.00 57 1004.5
20260906033008 85 96 0.0 3.0 0.00 0.00 0.00 54 1004.3
20260906031521 85 91 0.0 2.0 0.00 0.00 0.00 53 1004.2
20260906030106 86 94 0.0 3.0 0.00 0.00 0.00 52 1004.1
20260906024502 88 90 1.0 5.0 0.00 0.00 0.00 50 1004.0
20260906023008 88 97 1.0 3.0 0.00 0.00 0.00 50 1003.8
20260906021512 89 94 2.0 4.0 0.00 0.00 0.00 48 1003.5
20260906014609 91 101 2.0 5.0 0.00 0.00 0.00 46 1003.1
20260906013005 92 110 2.0 6.0 0.00 0.00 0.00 44 1002.9
20260906011501 93 126 3.0 7.0 0.00 0.00 0.00 42 1002.7
20260906010048 94 120 3.0 6.0 0.00 0.00 0.00 40 1002.5
20260906004559 95 147 3.0 8.0 0.00 0.00 0.00 39 1002.5
20260906003058 96 119 6.0 8.0 0.00 0.00 0.00 38 1002.4
20260906001507 97 96 6.0 12.0 0.00 0.00 0.00 37 1002.3
20260906000108 98 143 5.0 14.0 0.00 0.00 0.00 37 1002.3
20260905234602 98 103 7.0 13.0 0.00 0.00 0.00 36 1002.1
20260905233009 99 98 7.0 11.0 0.00 0.00 0.00 35 1002.0
20260905231511 99 158 6.0 13.0 0.00 0.00 0.00 35 1001.9
20260905230004 99 152 6.0 14.0 0.00 0.00 0.00 35 1001.9
20260905224510 99 170 4.0 14.0 0.00 0.00 0.00 34 1001.9
20260905223010 100 142 4.0 12.0 0.00 0.00 0.00 34 1002.0
20260905221527 100 135 5.0 10.0 0.00 0.00 0.00 33 1002.0